Location: Cheb
(50.0670°N, 12.3670°E)
Time: 09:02:53
(UTC+02:00)

ISS - Pass Details

Date: 01 April 2019
Orbit: 408 x 410 km, 51.6° (Epoch: 21 April)

Event Time Altitude Azimuth Distance (km) Brightness Sun altitude
Rises 20:09:17 0° 277° (W) 2,337 2.7 -5.1°
Reaches altitude 10° 20:11:23 10° 281° (W) 1,475 0.9 -5.5°
Maximum altitude 20:14:41 65° 4° (N) 455 -3.5 -6.0°
Drops below altitude 10° 20:17:58 10° 87° (E) 1,473 -1.6 -6.5°
Enters shadow 20:18:23 - 88° (E) 1,641 -1.4 -6.6°
